Location: Lauterschwan
(49.1153°N, 7.9014°E)
Time: 14:24:20
(UTC+00:00)

Daily predictions for brighter satellites

Satellite Brightness Start Highest point End
(mag) Time Altitude Azimuth Time Altitude Azimuth Time Altitude Azimuth
Cosmos 1980 3.8 18:18:05 10° SSW 18:23:47 86° ESE 18:29:31 10° NNE
STARLINK-1109 3.7 18:19:43 10° WNW 18:23:48 75° SSW 18:27:53 10° ESE
SL-8 R/B 3.7 18:19:16 10° W 18:24:03 82° S 18:28:50 10° E
STARLINK-1123 4.0 18:20:05 10° WNW 18:24:11 56° NNE 18:28:16 10° E
ERBS 3.0 18:22:36 10° WSW 18:25:55 56° NNW 18:29:16 10° NE
STARLINK-1246 4.0 18:22:16 10° SW 18:26:09 43° SE 18:30:03 10° ENE
CZ-2D R/B 4.4 18:24:20 10° S 18:28:02 47° W 18:31:44 10° NNW
STARLINK-1091 3.8 18:24:33 10° WNW 18:28:37 71° SSW 18:32:41 10° SE
Cosmos 1766 3.2 18:25:10 10° S 18:29:08 71° E 18:33:06 10° NNE
STARLINK-1097 4.0 18:25:04 10° WNW 18:29:09 58° NNE 18:33:16 10° E
STARLINK-1066 4.0 18:27:55 10° WNW 18:30:55 40° SW 18:33:53 10° SE
ADEOS Rocket 3.4 18:24:08 10° NNE 18:31:04 83° WNW 18:37:12 10° SSW
STARLINK-1081 4.0 18:28:24 10° WNW 18:31:21 39° SW 18:34:17 10° SE
STARLINK-67 2.5 18:28:50 10° WSW 18:31:25 75° NNW 18:34:00 10° ENE
USA 234 4.0 18:25:55 10° ENE 18:31:36 31° SE 18:37:15 10° S
STARLINK-1070 4.0 18:28:52 10° WNW 18:31:49 39° SW 18:34:44 10° SE
STARLINK-1201 3.0 18:28:39 10° SW 18:31:53 64° SSE 18:35:08 10° ENE
STARLINK-1069 4.0 18:29:17 10° WNW 18:32:15 39° SW 18:35:13 10° SE
STARLINK-1085 4.0 18:29:43 10° WNW 18:32:42 38° SW 18:35:40 10° SE
STARLINK-1086 4.0 18:30:14 10° WNW 18:33:09 38° SW 18:36:05 10° SE
STARLINK-1224 3.9 18:29:27 10° SW 18:33:21 47° SE 18:37:16 10° ENE
Cosmos 1626 2.5 18:29:46 10° N 18:33:21 43° ENE 18:36:53 10° SSE
STARLINK-1095 4.1 18:30:40 10° WNW 18:33:37 37° SW 18:36:31 10° SE
STARLINK-1077 4.1 18:31:07 10° WNW 18:34:03 37° SW 18:36:58 10° SE
STARLINK-1099 3.9 18:30:03 10° WNW 18:34:10 59° NNE 18:38:16 10° E
STARLINK-1075 4.1 18:31:35 10° WNW 18:34:30 37° SW 18:37:24 10° SE
STARLINK-1093 4.1 18:31:59 10° WNW 18:34:56 37° SW 18:37:53 10° SE
STARLINK-1203 3.7 18:31:05 10° SW 18:34:57 51° SSE 18:38:50 10° ENE
STARLINK-1074 4.1 18:32:26 10° WNW 18:35:24 37° SW 18:38:20 10° SE
H-2A R/B 2.2 18:30:34 10° SSE 18:35:47 61° ENE 18:40:53 10° N
STARLINK-1087 4.1 18:32:56 10° WNW 18:35:50 36° SW 18:38:44 10° SSE
STARLINK-1088 4.1 18:33:23 10° WNW 18:36:18 36° SW 18:39:11 10° SSE
STARLINK-1115 4.2 18:33:49 10° WNW 18:36:45 36° SW 18:39:40 10° SSE
HJ-1C 3.6 18:33:29 10° S 18:36:49 74° WSW 18:40:12 10° NNW
STARLINK-1076 4.2 18:34:16 10° WNW 18:37:12 36° SW 18:40:07 10° SSE
STARLINK-1092 4.2 18:34:43 10° WNW 18:37:39 35° SW 18:40:34 10° SSE
SL-16 R/B 2.5 18:32:31 10° S 18:37:48 43° ESE 18:43:07 10° NE
STARLINK-1225 3.8 18:34:01 10° SW 18:37:58 51° SSE 18:41:56 10° ENE
STARLINK-1080 4.2 18:35:12 10° WNW 18:38:05 35° SW 18:40:58 10° SSE
STARLINK-1090 4.2 18:35:40 10° WNW 18:38:32 34° SW 18:41:25 10° SSE
STARLINK-1072 3.9 18:34:52 10° WNW 18:38:52 61° SSW 18:42:50 10° SE
STARLINK-1089 4.2 18:36:06 10° WNW 18:38:59 34° SW 18:41:51 10° SSE
STARLINK-1104 3.9 18:35:02 10° WNW 18:39:09 61° NNE 18:43:12 10° E
STARLINK-1107 4.2 18:36:34 10° WNW 18:39:27 34° SW 18:42:18 10° SSE
Cosmos 2333 Rocket 4.0 18:35:00 10° WSW 18:40:10 35° NW 18:45:22 10° NNE
SL-08 RB Rocket 4.3 18:36:14 10° SE 18:40:26 39° ENE 18:44:42 10° N
Resurs 01 Rocket 3.1 18:39:04 10° ESE 18:42:19 21° ENE 18:45:36 10° NNE
STARLINK-1230 3.7 18:38:43 10° SW 18:42:42 54° SSE 18:46:41 10° ENE
STARLINK-1096 4.0 18:39:14 10° WNW 18:43:12 57° SSW 18:47:10 10° SE
STARLINK-1144 3.9 18:40:02 10° WNW 18:44:09 64° NNE 18:47:59 12° E
STARLINK-1233 2.8 18:42:10 10° WSW 18:45:18 81° SSE 18:48:27 10° ENE
STARLINK-1212 2.8 18:42:38 10° WSW 18:45:45 82° SSE 18:48:54 10° ENE
STARLINK-1105 2.8 18:43:04 10° WSW 18:46:12 82° SSE 18:49:21 10° ENE
FREGAT/IRIS 2.3 18:43:42 10° SSE 18:46:23 59° ENE 18:49:05 10° N
STARLINK-1206 2.8 18:43:33 10° WSW 18:46:41 83° SSE 18:49:48 10° ENE
Cosmos 1302 Rocket 4.1 18:41:48 10° NNW 18:47:05 67° ENE 18:52:21 10° SSE
STARLINK-1247 2.8 18:44:00 10° WSW 18:47:07 83° SSE 18:50:14 10° ENE
STARLINK-1243 3.7 18:43:30 10° SW 18:47:30 58° SSE 18:51:31 10° ENE
STARLINK-1227 2.8 18:44:25 10° WSW 18:47:33 84° SSE 18:50:43 10° ENE
STARLINK-1218 2.8 18:44:54 10° WSW 18:48:01 84° SSE 18:51:09 10° ENE
STARLINK-1079 4.1 18:44:18 10° WNW 18:48:14 53° SSW 18:52:11 10° SE
Abrixas rocket 4.0 18:46:53 10° S 18:48:23 13° SE 18:49:07 12° SE
STARLINK-1226 2.8 18:45:20 10° WSW 18:48:28 85° SSE 18:51:36 10° ENE
STARLINK-1254 2.8 18:45:46 10° WSW 18:48:54 85° SSE 18:52:03 10° ENE
STARLINK-1103 3.8 18:45:00 10° WNW 18:49:08 66° NNE 18:52:45 13° E
STARLINK-1215 2.8 18:46:15 10° WSW 18:49:22 86° SSE 18:52:30 10° ENE
Cosmos 304 Rocket 4.3 18:45:01 10° NNW 18:49:45 64° WSW 18:54:28 10° S
STARLINK-1231 2.8 18:46:41 10° WSW 18:49:48 86° SSE 18:52:56 10° ENE
Cosmos 1709 Rocket 4.0 18:43:58 10° N 18:50:12 70° ENE 18:56:19 10° SSE
SeaSat 1 3.8 18:45:49 10° NNE 18:50:31 44° NW 18:55:11 10° WSW
STARLINK-1232 2.8 18:47:36 10° WSW 18:50:43 87° SSE 18:53:51 10° ENE
Cosmos 1953 3.7 18:48:07 10° SE 18:51:00 20° E 18:53:54 10° NE
STARLINK-1217 2.8 18:48:03 10° WSW 18:51:10 88° SSE 18:54:18 10° ENE
STARLINK-1208 2.8 18:48:27 10° WSW 18:51:36 88° SSE 18:54:46 10° ENE
STARLINK-1229 2.8 18:48:57 10° WSW 18:52:04 89° SSE 18:55:12 10° ENE
STARLINK-1236 3.6 18:48:15 10° SW 18:52:16 62° SSE 18:56:19 10° ENE
STARLINK-1271 2.8 18:49:23 10° WSW 18:52:30 89° S 18:55:39 10° ENE
STARLINK-1116 4.2 18:48:44 10° WNW 18:52:39 50° SSW 18:56:26 11° SE
STARLINK-1270 2.8 18:49:51 10° WSW 18:52:58 89° WSW 18:56:06 10° ENE
STARLINK-1154 2.8 18:50:18 10° WSW 18:53:26 89° N 18:56:34 10° ENE
STARLINK-1101 3.8 18:49:59 10° WNW 18:54:08 69° NNE 18:57:32 15° E
STARLINK-1197 2.8 18:51:12 10° WSW 18:54:20 88° NNW 18:57:27 10° ENE
Cosmos 1269 Rocket 4.0 18:49:25 10° SSW 18:54:40 69° ESE 18:59:58 10° NNE
STARLINK-1189 2.8 18:51:40 10° WSW 18:54:47 88° NNW 18:57:55 10° ENE
MONITOR-E 3.6 18:52:16 10° SSE 18:54:54 74° ENE 18:57:34 10° N
STARLINK-1187 2.9 18:52:30 10° WSW 18:55:38 81° NNW 18:58:48 10° ENE
STARLINK-1188 2.8 18:52:34 10° WSW 18:55:41 87° NNW 18:58:48 10° ENE
STARLINK-1198 2.8 18:52:34 10° WSW 18:55:41 87° NNW 18:58:48 10° ENE
STARLINK-1235 3.0 18:53:13 10° WSW 18:56:21 74° NNW 18:59:30 10° ENE
CZ-4C R/B 4.2 18:51:52 10° WNW 18:56:40 27° NNW 19:02:15 10° NE
STARLINK-1199 2.9 18:54:30 10° WSW 18:57:38 85° NNW 19:00:44 10° ENE
STARLINK-1191 2.9 18:54:57 10° WSW 18:58:05 84° NNW 19:01:09 11° ENE
STARLINK-1210 2.9 18:55:24 10° WSW 18:58:32 84° NNW 19:01:36 11° ENE
STARLINK-1221 2.9 18:55:51 10° WSW 18:59:00 83° NNW 19:02:02 11° ENE
STARLINK-1102 3.7 18:54:57 10° WNW 18:59:06 72° NNE 19:02:19 16° ESE
STARLINK-1219 2.9 18:56:18 10° WSW 18:59:27 83° NNW 19:02:29 11° ENE
STARLINK-1222 2.9 18:56:46 10° WSW 18:59:53 82° NNW 19:02:54 11° ENE
ISS -3.5 18:56:54 10° WNW 19:00:16 65° NNE 19:02:41 17° E
STARLINK-1211 2.9 18:57:13 10° WSW 19:00:21 82° NNW 19:03:20 11° ENE
STARLINK-1214 2.9 18:57:39 10° WSW 19:00:47 82° NNW 19:03:46 11° ENE
STARLINK-1245 2.9 18:58:08 10° WSW 19:01:15 81° NNW 19:04:10 11° ENE
Cosmos 2297 3.9 18:55:49 10° NNW 19:01:31 78° WSW 19:07:12 10° SSE
STARLINK-1238 2.9 18:58:31 10° WSW 19:01:40 81° NNW 19:04:37 12° ENE
STARLINK-1094 4.4 18:58:01 10° WNW 19:01:53 44° SW 19:05:21 12° SE
STARLINK-1269 3.5 18:58:01 10° SW 19:02:05 70° SSE 19:06:09 10° ENE
Cosmos 1455 Rocket 3.2 18:58:06 10° SSW 19:02:26 77° W 19:06:50 10° N
Cosmos 2251 Rocket 4.5 18:58:08 10° SSE 19:02:28 26° E 19:06:51 10° NE
STARLINK-1205 2.9 18:59:27 10° WSW 19:02:34 80° NNW 19:05:27 12° ENE
BREEZE-M DEB (TANK) 4.0 18:54:11 10° W 19:02:49 84° N 19:05:20 17° E
STARLINK-1204 2.9 18:59:56 10° WSW 19:03:02 79° NNW 19:05:54 12° ENE
Cosmos 2084 Rocket 3.9 18:59:22 10° NW 19:03:44 52° NE 19:06:58 17° ESE
STARLINK-1111 3.7 18:59:57 10° WNW 19:04:06 75° NNE 19:07:06 18° ESE
STARLINK-1200 3.5 19:02:49 10° WSW 19:06:54 75° SSE 19:10:50 11° ENE
Cosmos 2237 Rocket 3.1 19:01:51 10° SW 19:07:20 52° NW 19:12:51 10° NNE
CZ-2C R/B 3.3 19:04:00 10° NNE 19:08:32 30° E 19:13:03 10° SSE
STARLINK-1073 3.6 19:04:56 10° WNW 19:09:05 78° NNE 19:11:53 20° ESE
Cosmos 1626 Rocket 3.5 19:04:41 10° N 19:09:07 78° E 19:13:28 10° SSE
STARLINK-1192 3.5 19:07:33 10° WSW 19:11:38 79° SSE 19:15:24 12° ENE
STARLINK-1121 3.6 19:09:54 10° WNW 19:14:04 82° NNE 19:16:39 22° ESE
Cosmos 292 Rocket 4.0 19:10:41 10° NNW 19:15:21 50° ENE 19:18:32 19° SE
ARGOS 3.3 19:10:47 10° S 19:16:12 77° WSW 19:21:37 10° NNW
STARLINK-1244 3.5 19:12:28 10° WSW 19:16:34 83° SSE 19:20:08 13° ENE
Cosmos 1602 Rocket 3.5 19:12:38 10° N 19:17:08 74° E 19:21:33 10° SSE
IRIDIUM 104 4.4 19:13:22 10° N 19:18:31 56° E 19:23:38 10° SSE
STARLINK-1106 3.6 19:14:51 10° WNW 19:19:01 86° NNE 19:21:25 24° ESE
STARLINK-1138 3.5 19:17:04 10° WSW 19:21:10 87° SSE 19:24:34 15° ENE
STARLINK-1234 3.4 19:19:14 10° W 19:22:08 52° NNW 19:24:04 19° ENE
MOS 1 Rocket 4.0 19:18:01 10° NNE 19:22:59 41° E 19:28:04 10° SSE
USA 186 3.1 19:20:13 10° S 19:23:30 43° W 19:26:46 10° NNW
STARLINK-1112 3.6 19:19:52 10° WNW 19:24:02 90° NNE 19:26:14 27° ESE
STARLINK-1143 3.5 19:21:58 10° WSW 19:26:03 89° NW 19:29:16 16° ENE
MetOp-A 4.1 19:21:30 10° SSE 19:26:51 79° ENE 19:32:14 10° NNW
IRIDIUM 114 4.3 19:22:29 10° N 19:27:43 67° E 19:32:51 10° SSE
COSMOS 2455 4.5 19:23:32 10° NNW 19:28:09 22° NNE 19:32:01 13° ENE
CZ-2C R/B 3.6 19:23:43 10° S 19:28:40 55° W 19:33:26 10° NNW
STARLINK-1128 3.6 19:24:51 10° WNW 19:29:00 86° SSW 19:31:01 30° ESE
Cosmos 1544 Rocket 4.4 19:25:46 10° SSW 19:30:04 54° WNW 19:34:27 10° N
Cosmos 1437 3.4 19:28:38 10° N 19:31:24 32° ENE 19:31:24 32° ENE
Cosmos 1470 2.9 19:28:09 10° SSW 19:32:01 76° W 19:35:57 10° N
STARLINK-1113 3.6 19:29:49 10° WNW 19:33:59 82° SSW 19:35:47 33° ESE
STARLINK-1241 3.6 19:30:20 10° WSW 19:34:23 82° NNW 19:37:13 19° ENE
SPOT 3 Rocket 3.6 19:30:06 10° SSE 19:35:20 82° WSW 19:40:35 10° NNW
Cosmos 1825 Rocket 3.9 19:31:52 10° N 19:36:10 47° ENE 19:37:53 31° SE
IRIDIUM 103 4.2 19:31:38 10° N 19:36:54 79° E 19:42:01 11° S
NOSS 3-4 (A) 4.5 19:31:51 10° NW 19:38:13 42° NNE 19:42:42 21° E
NOSS 3-4 (C) 4.5 19:31:57 10° NW 19:38:19 42° NNE 19:42:48 21° E
STARLINK-1119 3.6 19:34:48 10° WNW 19:38:58 77° SSW 19:40:34 36° SE
STARLINK-1239 3.6 19:35:15 10° WSW 19:39:18 78° NNW 19:41:56 21° ENE
Cosmos 2369 Rocket 2.2 19:34:14 10° NNW 19:39:58 73° ENE 19:43:14 26° SE
SJ-6B 4.1 19:37:43 10° S 19:41:36 43° W 19:45:34 10° NNW
Cosmos 1726 2.3 19:42:57 40° SE 19:43:45 48° E 19:47:23 10° NNE
STARLINK-1114 3.6 19:39:49 10° WNW 19:43:58 73° SSW 19:45:24 39° SE
STARLINK-1240 3.7 19:40:00 10° WSW 19:44:03 75° NNW 19:46:29 23° ENE
Aureole 2 Rocket 2.3 19:41:32 10° NNW 19:45:04 80° ENE 19:45:56 48° SE
Cosmos 2263 4.3 19:40:24 10° NNW 19:45:59 61° ENE 19:48:35 31° SE
Cosmos 1758 Rocket 3.4 19:41:36 10° N 19:45:59 69° E 19:47:54 32° SSE
Cosmos 1758 3.9 19:42:00 10° SSW 19:46:02 60° WNW 19:50:06 10° N
CZ-2C R/B 3.9 19:43:56 10° NNE 19:48:43 79° WNW 19:53:24 10° SSW
STARLINK-1216 3.7 19:44:44 10° WSW 19:48:47 72° NNW 19:51:02 25° ENE
STARLINK-1130 (DARKSAT) 3.7 19:44:47 10° WNW 19:48:55 69° SSW 19:50:10 42° SE
NOSS 3-3 (A) 4.2 19:43:33 10° S 19:49:02 44° ESE 19:55:11 10° NE
NOSS 3-3 (C) 4.2 19:43:40 10° S 19:49:09 43° ESE 19:55:17 10° NE
STARLINK-1209 3.8 19:49:22 10° W 19:52:11 40° N 19:52:50 34° NNE
Cosmos 1953 Rocket 3.9 19:48:08 10° N 19:52:27 47° ENE 19:53:22 41° ESE
STARLINK-1237 3.8 19:49:32 10° WSW 19:53:35 69° NNW 19:55:38 28° ENE
STARLINK-1084 3.7 19:49:46 10° WNW 19:53:53 64° SSW 19:54:56 45° SSE
Terra 3.5 19:53:53 18° ENE 19:54:14 18° ENE 19:57:24 10° NNE
STARLINK-1228 3.8 19:51:35 10° W 19:54:20 39° N 19:54:50 35° NNE
Cosmos 2184 Rocket 3.9 19:48:42 10° N 19:55:06 83° E 19:59:37 20° SSE
IRIDIUM 106 4.5 19:49:57 10° N 19:55:11 74° W 20:00:12 11° S
Spot 2 Rocket 3.7 19:55:41 37° SE 19:57:26 55° ENE 20:02:26 10° N
STARLINK-1202 3.8 19:54:17 10° W 19:58:20 66° NNW 20:00:11 30° ENE
STARLINK-1098 3.8 19:54:46 10° WNW 19:58:52 60° SSW 19:59:43 47° SSE
Cosmos 1606 Rocket 3.6 19:59:07 46° SE 19:59:58 54° E 20:04:20 10° NNE
Cosmos 1943 Rocket 2.5 19:55:51 10° NNW 20:01:20 64° WSW 20:04:35 25° S
SPOT 1/Viking Rocket 4.1 20:00:50 36° E 20:01:59 41° ENE 20:06:51 10° N
STARLINK-1123 3.9 19:59:45 10° WNW 20:03:49 56° SSW 20:04:30 49° S
Cosmos 1943 3.4 20:01:04 23° S 20:04:17 47° ESE 20:09:43 10° NE
STARLINK-1246 3.9 20:01:30 10° W 20:05:34 63° NNW 20:07:11 34° NE
STARLINK-67 4.2 20:03:14 10° WNW 20:05:15 30° NNW 20:05:15 30° NNW
Meteor 2-10 4.0 20:01:04 10° S 20:06:25 83° E 20:12:01 10° NNE
SL-8 R/B 3.7 20:01:47 10° W 20:06:33 70° SSW 20:07:34 52° SE
STARLINK-1201 3.9 20:05:06 10° W 20:08:16 44° N 20:08:41 41° NNE
Resurs 1-3 4.5 20:05:32 18° SSW 20:08:35 47° W 20:12:51 10° NNW
STARLINK-1097 3.9 20:04:43 10° WNW 20:08:46 52° SSW 20:09:16 49° S
ATLAS 2AS CENTAUR R/B 3.1 20:03:34 10° NW 20:11:14 59° NE 20:14:22 35° ESE
STARLINK-1224 4.0 20:08:40 10° W 20:12:41 59° NNW 20:13:58 39° NE
STARLINK-1099 4.0 20:09:44 10° WNW 20:13:44 49° SW 20:14:04 48° SSW
STARLINK-1203 4.0 20:10:04 10° W 20:13:59 56° NNW 20:15:06 40° NE
USA 234 3.2 20:08:35 10° ENE 20:15:10 87° SSE 20:21:44 10° WSW
H-2A R/B 4.4 20:11:33 10° SW 20:15:35 22° W 20:19:33 10° NW
Cosmos 2154 Rocket 3.9 20:09:47 10° N 20:16:12 79° E 20:18:59 36° SSE
USA 245 4.0 20:15:17 49° SE 20:16:38 72° ENE 20:22:32 10° N
STARLINK-1225 4.0 20:13:16 10° W 20:17:17 58° NNW 20:18:23 42° NE
DMSP B5D2-2 4.4 20:13:02 10° N 20:18:13 65° WNW 20:23:22 10° SSW
Resurs 01 Rocket 2.2 20:16:28 29° SSW 20:18:29 53° W 20:22:48 10° NNW
STARLINK-1104 4.1 20:14:44 10° WNW 20:18:42 46° SW 20:18:51 45° SSW
Cosmos 1328 3.7 20:16:13 10° N 20:20:14 87° W 20:20:25 82° S
STARLINK-1233 4.2 20:18:18 10° WNW 20:21:02 39° NNW 20:21:02 39° NNW
STARLINK-1212 4.2 20:18:47 10° WNW 20:21:27 38° NNW 20:21:27 38° NNW
Cosmos 921 Rocket 4.2 20:18:13 10° N 20:21:21 28° NE 20:21:21 28° NE
SL-16 R/B 3.6 20:16:43 10° WSW 20:22:00 39° NW 20:27:18 10° NNE
STARLINK-1230 4.1 20:18:02 10° W 20:22:03 56° NNW 20:22:57 45° NE
STARLINK-1105 4.2 20:19:12 10° WNW 20:21:53 39° NNW 20:21:53 39° NNW
STARLINK-1206 4.3 20:19:43 10° WNW 20:22:19 38° NNW 20:22:19 38° NNW
Cosmos 2228 2.8 20:22:39 71° S 20:23:06 87° E 20:27:27 10° N
STARLINK-1247 4.3 20:20:09 10° WNW 20:22:44 37° NNW 20:22:44 37° NNW
STARLINK-1227 4.3 20:20:34 10° WNW 20:23:12 38° NNW 20:23:12 38° NNW
STARLINK-1144 4.3 20:19:44 10° WNW 20:23:38 42° SW 20:23:38 42° SW
STARLINK-1218 4.3 20:21:04 10° WNW 20:23:36 37° NNW 20:23:36 37° NNW
Cosmos 967 Rocket 4.4 20:17:54 10° SSW 20:24:17 68° ESE 20:30:44 10° NE
STARLINK-1226 4.3 20:21:30 10° WNW 20:24:03 37° NNW 20:24:03 37° NNW
STARLINK-1254 4.3 20:21:56 10° WNW 20:24:30 37° NNW 20:24:30 37° NNW
STARLINK-1215 4.4 20:22:26 10° WNW 20:24:54 36° NNW 20:24:54 36° NNW
STARLINK-1231 4.4 20:22:51 10° WNW 20:25:19 36° NNW 20:25:19 36° NNW
STARLINK-1232 4.4 20:23:47 10° WNW 20:26:12 35° NNW 20:26:12 35° NNW
STARLINK-1243 4.1 20:22:53 10° W 20:26:55 55° NNW 20:27:35 48° NNE
Cosmos 1953 3.7 20:23:25 10° SW 20:27:08 38° WNW 20:30:53 10° N
STARLINK-1217 4.4 20:24:14 10° WNW 20:26:38 35° NW 20:26:38 35° NW
STARLINK-1208 4.4 20:24:38 10° WNW 20:27:05 36° NNW 20:27:05 36° NNW
STARLINK-1229 4.5 20:25:08 10° WNW 20:27:29 35° NW 20:27:29 35° NW
STARLINK-1271 4.5 20:25:35 10° WNW 20:27:56 34° NW 20:27:56 34° NW
STARLINK-1103 4.5 20:24:43 10° WNW 20:28:25 39° SW 20:28:25 39° SW
Cosmos 962 Rocket 4.4 20:24:16 10° N 20:30:27 65° ENE 20:31:43 52° SE
STARLINK-1236 4.1 20:27:42 10° W 20:31:43 53° N 20:32:12 50° NNE
Nadezhda 1 Rocket 4.0 20:29:47 23° S 20:34:00 88° W 20:40:26 10° N
SL-8 Rocket 4.2 20:30:14 10° N 20:36:21 50° ENE 20:37:01 48° E
ISS -1.8 20:33:50 10° WNW 20:35:39 26° W 20:35:39 26° W
STARLINK-1269 4.2 20:37:39 10° W 20:41:39 51° N 20:41:43 51° N
Cosmos 2058 Rocket 3.5 20:42:38 56° NNE 20:42:38 56° NNE 20:46:17 10° NNE
Cosmos 1603 3.8 20:37:52 10° SSW 20:43:31 76° WNW 20:49:09 10° NNE
SPOT 5 3.2 20:44:26 47° NNE 20:44:26 47° NNE 20:47:54 10° N
Cosmos 1703 4.1 20:39:58 10° NNW 20:43:46 46° W 20:43:49 46° W
Cosmos 2366 rocket 4.3 20:38:14 10° N 20:44:08 45° ENE 20:44:18 45° ENE
Cosmos 2251 Rocket 4.3 20:39:12 10° SW 20:44:26 53° WNW 20:49:44 10° NNE
STARLINK-1200 4.3 20:42:30 10° W 20:46:21 50° NNW 20:46:21 50° NNW
CZ-4C R/B 4.4 20:42:17 10° NW 20:47:21 24° N 20:53:08 10° ENE
IGS 5A 3.8 20:49:02 63° NW 20:49:02 63° NW 20:52:39 10° NNW
ERS-1 Rocket 2.9 20:48:38 76° ENE 20:48:38 76° ENE 20:53:36 10° NNW
CZ-2C R/B 3.7 20:44:06 10° N 20:48:59 43° WNW 20:53:50 10° SW
Landsat 7 3.8 20:49:39 73° WSW 20:49:48 74° WSW 20:54:35 10° NNW
STARLINK-1192 4.4 20:47:17 10° W 20:50:56 48° NNW 20:50:56 48° NNW
Cosmos 1656 Rocket 3.9 20:55:55 10° NW 21:01:30 59° WSW 21:02:03 56° SW
Aureole 1 Rocket 4.2 21:01:51 38° SSW 21:05:11 82° ESE 21:11:42 10° NNE
CARTOSAT-1 4.4 21:07:30 49° NNW 21:07:30 49° NNW 21:10:41 10° NNW
COSMOS 2455 2.9 21:09:12 10° NNW 21:15:09 67° NE 21:15:09 67° NE
In-Cosmos 22 Rocket 4.3 21:14:52 10° N 21:20:10 70° NNE 21:20:10 70° NNE
Cosmos 2341 Rocket 4.3 21:15:30 10° NNW 21:21:46 63° W 21:22:43 56° SW
Cosmos 1461 4.2 21:17:55 10° NW 21:20:56 41° NNW 21:20:56 41° NNW
Cosmos 2369 Rocket 4.1 21:19:16 10° NW 21:23:23 21° W 21:25:03 18° WSW
NOSS 3-4 (A) 3.8 21:22:42 10° NW 21:29:37 69° SW 21:30:09 67° SSW
NOSS 3-4 (C) 3.8 21:22:48 10° NW 21:29:44 70° SW 21:30:14 68° SSW
Terra 2.7 21:32:45 47° NNW 21:32:45 47° NNW 21:36:13 10° NNW
ATLAS CENTAUR R/B 4.1 21:30:08 10° N 21:31:47 12° NNE 21:31:52 12° NNE
Cosmos 2218 Rocket 4.2 21:42:45 10° NNW 21:48:36 62° W 21:48:36 62° W
USA 234 3.9 21:51:40 10° ENE 21:57:57 51° NNW 22:04:14 10° W
Cosmos 2181 Rocket 4.5 22:00:17 53° W 22:00:30 53° WNW 22:06:37 10° N
ATLAS 2AS CENTAUR R/B 3.5 21:55:01 10° NW 22:01:48 43° WSW 22:01:48 43° WSW
Cosmos 1697 Rocket 3.9 22:06:03 10° NNW 22:10:12 36° NNE 22:10:12 36° NNE
Mayak 1.3 22:14:24 10° N 22:15:32 18° N 22:15:32 18° N
Cosmos 1980 Rocket 3.6 22:31:37 10° NNW 22:35:28 32° NNE 22:35:28 32° NNE
CZ-4C R/B 3.6 22:31:11 10° NW 22:37:38 44° NE 22:38:44 41° NE
Cosmos 2082 Rocket 4.4 23:00:52 17° NE 23:00:52 17° NE 23:02:13 10° NE
ATLAS 5 CENTAUR R/B 4.1 23:20:05 20° NNE 23:20:05 20° NNE 23:21:54 10° NNE
Cosmos 1833 Rocket 4.3 23:28:31 29° NNE 23:28:31 29° NNE 23:31:10 10° NNE
USA 234 4.1 23:34:09 10° ENE 23:40:20 46° N 23:46:30 10° WNW
SL-16 R/B 3.8 23:52:44 33° ENE 23:52:54 33° ENE 23:58:20 10° N
